Regional Weather Roundup
Issued by NWS

Home | Current Version | Previous Version | Text Only | Print | Product List | Glossary Off
Versions: 1 2 3 4 5 6 7 8 9 10 11 12 13 14 15 16 17 18 19 20 21 22 23 24 25 26 27 28 29 30 31 32 33 34 35 36 37 38 39 40 41 42 43 44 45 46 47 48 49 50

000
ASUS43 KMKX 211721
RWRWI

WISCONSIN REGIONAL WEATHER ROUNDUP
NATIONAL WEATHER SERVICE MILWAUKEE/SULLIVAN WI
1200 PM CDT MON AUG 21 2017

NOTE: "FAIR" INDICATES FEW OR NO CLOUDS BELOW 12,000 FEET WITH NO
SIGNIFICANT WEATHER AND/OR OBSTRUCTIONS TO VISIBILITY.

WIZ001-002-006>008-014>016-023>028-211800-
NORTHWEST WISCONSIN

CITY           SKY/WX    TMP DP  RH WIND       PRES   REMARKS
SUPERIOR ARPT    N/A     67  60  80 CALM      30.01F
ASHLAND        CLOUDY    74  58  57 NE3       30.01F
HAYWARD        CLOUDY    75  58  55 SE3       30.00F
SIREN          CLOUDY    74  59  59 NW3       30.02R
CUMBERLAND     CLOUDY    73  61  64 S5        30.02R
RICE LAKE      CLOUDY    75  63  66 S8        30.02S
CHETEK         CLOUDY    77  66  70 S8        30.01S
LADYSMITH      CLOUDY    77  64  63 SE7       30.02F
EAU CLAIRE     CLOUDY    74  67  78 E6        29.99F
MENOMONIE      CLOUDY    74  69  83 CALM      30.01F
NEW RICHMOND   MOSUNNY   77  63  62 SW3       30.00F
OSCEOLA        CLOUDY    75  63  66 CALM      30.01F
$$

WIZ003>005-009-010-017-018-211800-
NORTH CENTRAL WISCONSIN

CITY           SKY/WX    TMP DP  RH WIND       PRES   REMARKS
MANITOWISH WTR SUNNY     74  55  50 SE5       30.03F
ARBOR VITAE    SUNNY     77  60  54 SE3       30.03F
WOODRUFF       SUNNY     77  60  54 SE3       30.03F
RHINELANDER    MOSUNNY   77  62  59 S12       30.05F
EAGLE RIVER    SUNNY     76  56  49 SE5       30.04F
LAND O LAKES   SUNNY     76  48  37 CALM      30.07S
PHILLIPS       CLOUDY    75  62  63 S6        30.01F
TOMAHAWK         N/A     75  61  62 SE3       30.04F
MEDFORD        CLOUDY    71  64  77 SE6       30.03F
MERRILL        CLOUDY    72  64  78 SE6       30.04F
$$

WIZ029-030-035-036-043>047-211800-
CENTRAL WISCONSIN

CITY           SKY/WX    TMP DP  RH WIND       PRES   REMARKS
WAUSAU         MOSUNNY   76  68  76 SE6       30.02F
MOSINEE        NOT AVBL
MARSHFIELD     MOSUNNY   79  67  66 SE7       30.00F HX  81
STEVENS POINT  MOSUNNY   77  68  75 SW3       30.03F
WAUPACA        SUNNY     82  71  71 S7        30.04F HX  86
WAUTOMA        MOSUNNY   78  69  73 E6        30.02F HX  80
WISC RAPIDS    SUNNY     81  70  69 MISG      30.02F HX  84
CAMP DOUGLAS   MOSUNNY   79  70  73 E5        30.00F HX  81
$$

WIZ011>013-019>022-031-037>040-048>050-211800-
NORTHEAST WISCONSIN

CITY           SKY/WX    TMP DP  RH WIND       PRES   REMARKS
ANTIGO         CLOUDY    72  62  70 SE5       30.07S
SHAWANO        MOSUNNY   78  68  72 N5        30.03F
OCONTO         CLOUDY    78  66  66 E6        30.02F
STURGEON BAY   CLOUDY    77  71  82 CALM      30.04S
GREEN BAY      CLOUDY    77  72  84 SW7       30.04F
MANITOWOC        N/A    N/A N/A N/A MISG        N/A
APPLETON       PTSUNNY   75  64  69 SW9       30.04F
CLINTONVILLE   MOSUNNY   77  68  73 SW7       30.03F
OSHKOSH        CLOUDY    76  67  73 SW9       30.05F
$$

WIZ032>034-041-042-053>061-211800-
SOUTHWEST WISCONSIN

CITY           SKY/WX    TMP DP  RH WIND       PRES   REMARKS
LA CROSSE      MOSUNNY   84  69  60 S10       29.96F HX  88
SPARTA         CLOUDY    80  66  62 S7        29.99F HX  82
VIROQUA        MOSUNNY   76  66  71 CALM      30.02F
BOSCOBEL       CLOUDY    76  68  76 SE3       30.03S
PRAIRIE DU CHI CLOUDY    76  67  73 SE5       30.02F
PLATTEVILLE    CLOUDY    77  71  83 SE6       30.06F
$$

WIZ056-057-062-063-064-067-068-211800-
SOUTH CENTRAL WISCONSIN

CITY           SKY/WX    TMP DP  RH WIND       PRES   REMARKS
REEDSBURG      CLOUDY    77  71  80 SE5       30.02F
BARABOO/DELLS  CLOUDY    77  67  71 E6        30.02F
LONE ROCK      CLOUDY    76  71  85 SE5       30.03R
MINERAL POINT  CLOUDY    81  73  78 SE8       30.06R HX  85
MADISON        CLOUDY    76  69  79 VRB3      30.04F
MIDDLETON      CLOUDY    75  72  89 SE7       30.05R
WATERTOWN      CLOUDY    76  71  84 NE6       30.04F
MONROE         MOSUNNY   77  70  78 NE6       30.07F
JANESVILLE     CLOUDY    79  70  73 E6        30.05S HX  81
$$

WIZ051-052-058>065-066-070>072-211800-
SOUTHEAST WISCONSIN

CITY           SKY/WX    TMP DP  RH WIND       PRES   REMARKS
MILWAUKEE      CLOUDY    82  70  66 W8        30.07R HX  86
WAUKESHA       MOSUNNY   75  68  78 W7        30.10S
MILWAUKEE/TIMM MOSUNNY   79  66  65 W7        30.08S HX  81
RACINE         CLOUDY    80  72  76 W8        30.09R HX  84
KENOSHA        CLOUDY    81  71  71 NW7       30.07F HX  85
FOND DU LAC    CLOUDY    76  66  71 VRB3      30.07F
SHEBOYGAN      CLOUDY    77  68  73 W6        30.06S
WEST BEND      CLOUDY    77  68  73 W7        30.08S
JUNEAU         CLOUDY    77  68  72 NE9       30.04F
$$

LSZ147-162-211800-
LAKE SUPERIOR

STATION/POSITION TIME  TEMP    WIND        PRES    WAVE
                       AIR SEA DIR/SP/G            HT/PER
                 (UTC) (F)     (DEG/KT/KT) (MB)    (FT/S)
W MID LAKE BUOY  1650   61 61  230/  4/  4 1016.4F   0
DEVILS ISLAND    1700   64     280/  5/  6 1016.6F
SAXON HARBOR     1630   67      20/  4/  5 1016.3F
$$

LMZ867-665-643>646-211800-
LAKE MICHIGAN

STATION/POSITION TIME  TEMP    WIND        PRES    WAVE
                       AIR SEA DIR/SP/G            HT/PER
                 (UTC) (F)     (DEG/KT/KT) (MB)    (FT/S)
S GREEN BAY BUOY 1700   73 72  180/  2/  2 1016.7
N MID LAKE BUOY  1650   69 69  190/  2/  4 1017.2F   1/ 4
NORTHPORT PIER   1640   75      CALM  /  2 1016.6F
KEWAUNEE LAKESHO 1654   71     170/  3/  4 1016.4S
SHEBOYGAN LAKESH 1700   73     160/  6/  7 1017.3F
PORT WASHINGTON  1630   79     170/  4/  6 1019.0R
ATWATER BUOY     1609   72 70   80/  2/  2 1018.4R
MILWAUKEE LAKESH 1700   80     310/  6/  8   N/A
S MID LAKE BUOY  1650   73 72  270/  6/  6 1018.3R   1/ 4
KENOSHA   LAKESH 1700   80     290/  7/ 13 1017.6
$$

TC  - TEMPERATURE IN CELSIUS
VSB - VISIBILITY IN STATUTE MILES
WCI - WIND CHILL INDEX
HX  - HEAT INDEX





USA.gov is the U.S. government's official web portal to all federal, state and local government web resources and services.